Tracking 18852 objects as of 22-Nov-2017
HD Live streaming from Space Station
objects crossing your sky now

COSMOS 1908

Track COSMOS 1908 now!
10-day predictions
COSMOS 1908 is classified as:


NORAD ID: 18748
Int'l Code: 1988-001A
Perigee: 520.4 km
Apogee: 541.5 km
Inclination: 82.5 °
Period: 95.1 minutes
Semi major axis: 6901 km
RCS: 8.8422 m2 (large)
Launch date: January 6, 1988
Source: Commonwealth of Independent States (former USSR) (CIS)
Launch site: PLESETSK MISSILE AND SPACE COMPLEX (PKMTR)
aabbcc
Your satellite tracking list
Your tracking list is empty




NASA's NSSDC Master Catalog

Two Line Element Set (TLE):
1 18748U 88001A   17326.36882853 +.00001302 +00000-0 +69716-4 0  9996
2 18748 082.4737 266.0500 0015297 065.0753 295.2066 15.14078663629435
Source of the keplerian elements: AFSPC